Location: Bazugues
(43.4465°N, 0.3432°E)
Time: 23:03:50
(UTC+00:00)

UNISAT 6 - Pass Details

Date: 17 May 2026
Orbit: 571 x 636 km, 97.8° (Epoch: 7 June)

Event Time Altitude Azimuth Distance (km) Brightness Sun altitude
Exits shadow 03:21:13 - 175° (S) 2,809 ? -11.5°
Reaches altitude 10° 03:23:12 10° 179° (S) 2,004 ? -11.2°
Maximum altitude 03:27:31 60° 259° (W) 717 ? -10.6°
Drops below altitude 10° 03:31:48 10° 340° (NNW) 1,987 ? -10.0°
Sets 03:34:00 0° 344° (NNW) 2,887 ? -9.7°
